Cloud_Cover
5 11 16 23 30 31 20 6 5 26 61 27 68 5 40 59 80 29 37 5 5 5 5 8 37 50 11 68 95 100 97 43 37 100 100 100 75 51 19 12 1 3 7
10 19 8 18 31 36 43 28 88 100 100 71 5 35 71 63 65 67 8 1 3 5 5 5 14 27 23 39 48 94 79 12 45 53 27 47 53 61 58 84 6 11 6
72 95 80 13 15 97 100 100 100 100 84 25 5 5 5 54 39 4 0 1 3 5 5 5 5 5 28 34 100 100 71 100 100 98 28 16 33 100 74 100 98 34 24
89 100 92 100 100 100 100 100 100 96 13 5 5 5 91 82 5 1 0 2 2 5 5 5 5 5 99 41 16 66 86 100 100 100 100 100 100 100 100 100 100 97 100
99 100 100 100 100 100 100 100 100 51 34 5 5 13 9 68 60 4 5 5 5 5 6 5 16 88 86 100 100 100 100 100 100 100 100 100 100 100 100 100 100 100 100
100 100 100 100 100 100 100 86 59 82 11 5 13 22 6 53 56 5 5 5 5 5 5 5 5 56 86 95 100 100 100 100 100 100 100 100 100 100 100 100 100 100 100
100 100 100 100 100 100 100 100 100 44 49 59 45 9 5 5 2 5 5 5 5 5 5 5 5 50 76 98 100 100 100 100 100 100 100 100 100 100 100 100 100 100 100
100 100 100 100 100 100 100 50 34 71 59 97 90 83 23 5 5 0 0 5 5 5 5 5 48 92 97 94 100 90 99 100 100 100 100 100 100 100 100 100 100 100 100
100 100 100 99 96 98 56 13 5 37 42 29 32 96 100 51 15 5 6 4 4 5 5 50 10 83 99 84 100 100 100 94 100 100 100 100 100 100 100 100 100 100 100
100 81 84 81 56 37 24 18 10 14 50 100 72 70 82 100 100 94 77 68 65 89 10 100 97 100 100 100 100 100 100 100 100 100 100 100 100 100 100 100 100 100 100
22 65 22 29 28 29 19 55 36 50 63 99 100 99 100 100 97 100 100 80 100 22 86 70 89 50 100 100 100 100 100 100 100 100 100 100 100 100 100 100 100 100 100
98 59 74 75 24 30 29 24 43 51 81 99 100 95 97 92 100 100 89 84 99 54 81 53 25 89 100 100 100 100 100 100 100 100 100 100 100 100 100 100 100 100 100
96 82 70 40 37 43 30 12 12 98 100 82 100 100 37 76 65 100 100 100 100 99 78 29 28 19 28 94 100 100 100 100 100 100 100 100 100 100 100 100 100 100 100
88 79 40 25 19 6 46 28 14 22 25 100 100 100 88 37 100 100 100 100 100 100 86 100 14 23 20 86 100 100 100 100 100 100 100 100 100 100 100 100 100 100 100
100 100 96 94 16 7 23 27 70 96 100 100 100 100 100 100 100 100 100 100 100 100 100 92 31 2 3 14 85 100 100 100 100 100 100 100 100 100 100 100 100 100 100
100 100 99 99 66 18 37 10 44 100 100 100 100 100 100 100 100 100 100 100 100 100 100 100 90 100 95 100 100 100 100 100 100 100 100 100 100 100 100 100 100 100 100
100 100 76 33 88 73 75 49 57 34 99 100 100 100 100 100 100 100 100 100 100 100 100 90 100 90 99 100 100 100 100 100 100 100 100 100 100 100 100 100 100 100 100
100 75 82 95 100 89 52 72 38 5 5 4 22 57 72 100 100 100 100 57 100 100 100 100 100 100 100 100 100 100 100 100 100 100 100 100 100 100 100 100 100 100 100
29 94 92 93 8 8 82 54 14 5 2 2 5 3 12 0 1 67 53 79 100 98 100 100 100 100 100 100 100 100 100 100 100 100 100 100 100 100 100 100 100 100 100
99 100 42 24 7 10 5 7 4 26 42 52 36 23 6 2 28 68 95 100 98 100 100 100 100 100 100 100 100 100 100 100 100 100 100 100 100 100 100 100 100 100 100
100 59 43 70 85 84 56 21 84 100 100 100 100 100 100 100 100 100 100 100 100 100 100 100 100 100 100 100 76 90 83 85 86 99 100 100 100 100 100 100 100 100 100
100 100 100 100 100 100 100 100 99 100 100 100 100 100 99 100 100 100 100 100 99 39 96 96 91 85 62 28 17 73 81 72 87 45 27 10 98 91 99 100 100 100 100
100 100 100 100 100 100 99 86 85 51 17 20 12 18 21 26 52 64 59 78 91 90 97 68 11 12 10 5 5 5 6 5 5 12 20 45 74 50 55 52 90 18 6
100 100 100 100 100 99 89 56 8 5 6 5 5 5 5 5 5 5 5 5 5 5 8 5 5 5 5 5 5 5 5 5 5 5 5 67 5 5 5 5 5 5 5
100 100 100 93 5 5 4 5 6 5 5 5 1 5 2 5 10 32 5 5 5 5 6 6 5 5 5 7 14 12 80 70 18 5 5 5 5 5 5 5 5 12 54
100 65 40 24 6 5 5 5 4 5 4 0 0 0 4 5 21 46 6 9 6 5 5 5 5 5 3 0 0 4 5 5 54 5 5 35 10 5 10 2 5 4 5